Location: Newark
(44.6303°N, 123.0961°W)
Time: 05:34:37
(UTC+00:00)

Envisat - Pass Details

Date: 27 January 2020
Orbit: 764 x 766 km, 98.1° (Epoch: 27 February)

Event Time Altitude Azimuth Distance (km) Brightness Sun altitude
Rises 02:51:17 0° 194° (SSW) 3,219 6.5 -17.6°
Reaches altitude 10° 02:53:51 10° 206° (SSW) 2,298 5.9 -18.0°
Maximum altitude 02:58:13 29° 265° (W) 1,383 5.1 -18.8°
Drops below altitude 10° 03:02:38 10° 325° (NW) 2,313 5.8 -19.5°
Sets 03:05:15 0° 337° (NNW) 3,244 6.5 -20.0°
